Regional Weather Roundup
Issued by NWS Sioux Falls, SD

Home | Current Version | Previous Version | Graphics & Text | Print | Product List | Glossary On
Versions: 1 2 3 4 5 6 7 8 9 10 11 12 13 14 15 16 17 18 19 20 21 22 23 24 25 26 27 28 29 30 31 32 33 34 35 36 37 38 39 40 41 42 43 44 45 46 47 48 49 50
000
ASUS43 KFSD 281210
RWRFSD

WEATHER ROUNDUP FOR SE SOUTH DAKOTA/SW MINNESOTA/NW IOWA
NATIONAL WEATHER SERVICE SIOUX FALLS SD
700 AM CDT TUE APR 28 2015

NOTE: "FAIR" INDICATES FEW OR NO CLOUDS BELOW 12,000 FEET WITH NO
SIGNIFICANT WEATHER AND OR OBSTRUCTIONS TO VISIBILITY.


SDZ038>040-050-052>070-281300-
SOUTHEAST SOUTH DAKOTA

CITY           SKY/WX    TMP DP  RH WIND       PRES   REMARKS
BROOKINGS      MOCLDY    48  43  81 N9        30.23S
CHAMBERLAIN    CLOUDY    46  42  88 NW8       30.30R
6HR MIN TEMP:  45; 6HR MAX TEMP:  48;

HURON          CLOUDY    47  43  86 N10       30.28R
6HR MIN TEMP:  46; 6HR MAX TEMP:  49;

MADISON        PTSUNNY   45  45 100 NW8       30.23S
MITCHELL       CLOUDY    48  44  86 NW14      30.27S
6HR MIN TEMP:  45; 6HR MAX TEMP:  50; 6HR PCP: TRACE;

SIOUX FALLS    MOCLDY    39  32  76 CALM      30.22R
6HR MIN TEMP:  36; 6HR MAX TEMP:  46;

WINNER         FAIR      44  39  82 NW12      30.32R
YANKTON        PTCLDY    45  39  81 W9        30.24R
$$

MNZ071-072-080-081-089-090-097-098-281300-
SOUTHWEST MINNESOTA

CITY           SKY/WX    TMP DP  RH WIND       PRES   REMARKS
FAIRMONT       CLEAR     43  30  61 NW9       30.18S
JACKSON        CLEAR     41  34  75 NW6       30.20S
LUVERNE        PTCLDY    41  34  75 CALM      30.21S
MARSHALL       MOCLDY    46  37  71 NW7       30.21R
6HR MIN TEMP:  41; 6HR MAX TEMP:  46;

MONTEVIDEO     CLOUDY    50  43  76 N7        30.22S
REDWOOD FALLS  MOCLDY    43  38  82 NW8       30.19R
TRACY          MOCLDY    46  40  82 NW9       30.21S
WORTHINGTON    PTCLDY    39  34  81 NW9       30.21S
$$

IAZ001>003-012>014-020>022-031-032-NEZ013-014-SDZ071-281300-
NORTHWEST IOWA

CITY           SKY/WX    TMP DP  RH WIND       PRES   REMARKS
CHEROKEE       CLEAR     35  34  99 CALM      30.21R
DENISON        CLEAR     36  36 100 CALM      30.18S
ESTHERVILLE    CLEAR     40  31  70 N8        30.19R
LE MARS        CLEAR     36  30  80 CALM      30.22R
ORANGE CITY    PTCLDY    39  25  56 E3        30.19S
SHELDON        CLEAR     34  28  80 CALM      30.19S
SIOUX CITY     CLEAR     41  30  65 NW8       30.22R
6HR MIN TEMP:  38; 6HR MAX TEMP:  45;

SPENCER        CLEAR     34  28  79 W5        30.20R WCI  30
6HR MIN TEMP:  31; 6HR MAX TEMP:  42;

STORM LAKE     CLEAR     50  30  46 NW12      30.20R
$$

ABBREVIATIONS USED IN REMARKS
   TC - TEMPERATURE IN CELSIUS
  WCI - WIND CHILL INDEX
   HX - HEAT INDEX
  VSB - VISIBILITY



USA.gov is the U.S. government's official web portal to all federal, state and local government web resources and services.